Regional Weather Roundup
Issued by NWS

Home | Current Version | Previous Version | Text Only | Print | Product List | Glossary Off
Versions: 1 2 3 4 5 6 7 8 9 10 11 12 13 14 15 16 17 18 19 20 21 22 23 24 25 26 27 28 29 30 31 32 33 34 35 36 37 38 39 40 41 42 43 44 45 46 47 48 49 50

000
ASUS43 KIND 252009
RWRIN

WEATHER ROUNDUP FOR INDIANA
NATIONAL WEATHER SERVICE INDIANAPOLIS IN
300 PM EST THU DEC 25 2014

NOTE: "FAIR" INDICATES FEW OR NO CLOUDS BELOW 12,000 FEET WITH NO
SIGNIFICANT WEATHER AND/OR OBSTRUCTIONS TO VISIBILITY.

* - STATION DOES NOT REPORT WEATHER SUCH AS PRECIPITATION OR FOG.

+ - STATION NOT QUALITY CONTROLLED BY THE NATIONAL WEATHER SERVICE.
    USE DATA WITH CAUTION...ESPECIALLY DEWPOINT AND RELATIVE
    HUMIDITY OBSERVATIONS.

INZ001>003-010>013-019-020-252100-
NORTHWEST INDIANA

CITY           SKY/WX    TMP DP  RH WIND       PRES   REMARKS
GARY /AIRPORT/ PTSUNNY   41  28  60 SW129     30.00R
KNOX *+        CLOUDY    39  29  69 SW12      30.01S
LA PORTE +     PTSUNNY   40  32  72 SW16      30.00S
MICHIGAN CITY+ CLOUDY    37  28  70 S12G18    30.00S
MONTICELLO +   CLOUDY    40  33  74 SW15      30.02F
RENSSELAER +   CLOUDY    41  36  81 S15       30.02R
VALPARAISO     PTSUNNY   40  31  70 SW13G22   30.00S

$$

LMZ046-743>745-252100-
SOUTHERN LAKE MICHIGAN

STATION/POSITION TIME  TEMP WIND        PRES
                       AIR  DIR/SP/G
                 (UTC) (F)  (DEG/KT/KT) (MB)
MICHIGAN CITY    2000   38  190/ 17/ 21   N/A

$$

INZ004-005-014>016-021>024-252100-
NORTH CENTRAL INDIANA

CITY           SKY/WX    TMP DP  RH WIND       PRES   REMARKS
GOSHEN         CLOUDY    37  30  75 SW15      30.02R
LOGANSPORT +   CLOUDY    37  32  81 SW14      30.04S
PERU/GRISSOM   PTSUNNY   39  37  94 SW9       30.03S
ROCHESTER +    CLOUDY    39  34  81 SW15      30.04R
SOUTH BEND     CLOUDY    39  29  67 SW17G25   30.01R
WARSAW +       CLOUDY    36  32  87 SW10G18   30.03R

$$

INZ006>009-017-018-025>027-252100-
NORTHEAST INDIANA

CITY           SKY/WX    TMP DP  RH WIND       PRES   REMARKS
ANGOLA *+      CLOUDY    36  30  80 W14       30.01R
AUBURN +       CLOUDY    36  30  80 SW9G17    30.03S
FORT WAYNE     CLOUDY    37  31  78 SW14      30.05R
HUNTINGTON +   CLOUDY    37  31  80 SW10      30.05R

$$

INZ028-029-035-036-043>045-051>053-252100-
WEST CENTRAL INDIANA

CITY           SKY/WX    TMP DP  RH WIND       PRES   REMARKS
GREENCASTLE +  PTSUNNY   39  30  70 SW7       30.07R
LAFAYETTE      CLOUDY    41  32  70 SW13G21   30.04S
TERRE HAUTE    MOSUNNY   44  33  65 S15       30.07S

$$

INZ030>032-037>040-046>048-054>057-064-065-252100-
CENTRAL INDIANA

CITY           SKY/WX    TMP DP  RH WIND       PRES   REMARKS
CP ATTERBURY + PTSUNNY   41  32  70 MISG      30.10R
COLUMBUS       CLOUDY    41  34  75 S12       30.11R
FRANKFORT +    PTSUNNY   40  34  78 S14G20    30.06S
GREENWOOD *+   CLOUDY    41  30  65 SW8       30.08
INDIANAPOLIS   PTSUNNY   40  31  70 SW12      30.06R
-EAGLE CREEK   CLOUDY    39  31  72 SW12G21   30.06R
KOKOMO *+      CLOUDY    39  30  70 SW13      30.04S
MARION +       CLOUDY    37  31  79 SW12      30.05F
MT COMFORT *+  PTSUNNY   39  27  60 SW10      30.08R
SHELBYVILLE    CLOUDY    42  32  67 SW15      30.09R
ZIONSVILLE +   CLOUDY    40  31  70 SW15      30.06S

$$

INZ033-034-041-042-049-050-058-059-252100-
EAST CENTRAL INDIANA

CITY           SKY/WX    TMP DP  RH WIND       PRES   REMARKS
MUNCIE         CLOUDY    39  30  70 SW12      30.06S

$$

INZ060-061-067>069-081>083-085>088-252100-
SOUTHWEST INDIANA

CITY           SKY/WX    TMP DP  RH WIND       PRES   REMARKS
EVANSVILLE     MOSUNNY   49  34  56 S15G22    30.12F
HUNTINGBURG *+ MOSUNNY   45  34  65 SW13G18   30.13R
WASHINGTON +   PTSUNNY   45  31  57 S14G21    30.10S

$$

INZ062-063-066-070>080-084-089>092-252100-
SOUTH CENTRAL AND SOUTHEAST INDIANA

CITY           SKY/WX    TMP DP  RH WIND       PRES   REMARKS
BLOOMINGTON    PTSUNNY   43  33  68 SW13      30.08S

$$



USA.gov is the U.S. government's official web portal to all federal, state and local government web resources and services.